CST,Max TemperatureF,Mean TemperatureF,Min TemperatureF,Max Dew PointF,MeanDew PointF,Min DewpointF,Max Humidity, Mean Humidity, Min Humidity, Max Sea Level PressureIn, Mean Sea Level PressureIn, Min Sea Level PressureIn, Max VisibilityMiles, Mean VisibilityMiles, Min VisibilityMiles, Max Wind SpeedMPH, Mean Wind SpeedMPH, Max Gust SpeedMPH,PrecipitationIn, CloudCover, Events, WindDirDegrees
2012-11-1,60,50,39,41,36,30,87,65,45,30.01,29.97,29.94,10,10,10,14,5,18,0.00,1,,347
2012-11-2,51,42,33,30,29,27,81,65,38,30.06,30.01,29.96,10,10,10,17,10,21,0.00,1,,75
2012-11-3,53,43,33,30,29,27,81,61,38,30.20,30.14,30.05,10,10,2,12,7,,0.00,1,,27
2012-11-4,55,44,33,41,35,28,87,70,44,30.21,30.13,30.04,10,10,7,15,4,18,0.01,5,Rain,153
2012-11-5,42,40,39,39,38,36,93,90,87,30.13,30.08,30.01,5,4,2,16,10,18,0.14,8,Rain,92
2012-11-6,53,46,39,39,36,30,93,72,47,30.06,29.98,29.92,10,8,2,26,12,37,0.01,7,,280
2012-11-7,48,40,32,36,31,27,87,71,50,30.17,30.10,30.02,10,10,10,14,7,20,0.00,3,,330
2012-11-8,62,47,32,37,33,28,87,62,31,30.10,29.98,29.90,10,10,10,18,10,25,0.00,0,,155
2012-11-9,64,53,42,55,44,36,82,70,52,29.92,29.84,29.76,10,10,7,16,9,17,0.00,1,,136
2012-11-10,73,66,59,55,53,48,82,65,50,29.75,29.67,29.60,10,10,5,29,19,39,0.14,1,Rain,178
2012-11-11,59,41,23,54,29,16,88,79,64,30.13,29.89,29.66,10,9,3,22,14,30,0.96,5,Rain-Snow,290
2012-11-12,37,28,19,19,16,14,80,64,41,30.38,30.25,30.14,10,10,10,25,5,32,0.00,0,,261
2012-11-13,51,36,21,30,23,16,80,58,30,30.40,30.36,30.31,10,10,10,13,6,16,0.00,0,,173
2012-11-14,55,44,33,30,26,18,81,54,23,30.35,30.30,30.24,10,10,10,18,9,23,0.00,1,,187
2012-11-15,57,47,37,32,29,27,75,54,31,30.41,30.30,30.23,10,10,10,13,7,,0.00,2,,220
2012-11-16,55,40,24,34,27,21,86,64,33,30.46,30.41,30.35,10,10,7,13,7,,0.00,0,,106
2012-11-17,57,46,35,34,31,27,81,59,31,30.36,30.31,30.25,10,10,10,21,10,28,0.00,0,,158
2012-11-18,59,48,37,36,30,28,70,47,33,30.26,30.18,30.12,10,10,10,21,12,25,0.00,4,Rain,161
2012-11-19,60,50,39,45,37,28,87,61,38,30.13,30.07,30.03,10,10,10,21,11,26,0.00,1,,207
2012-11-20,60,48,35,43,35,30,87,66,34,30.20,30.16,30.08,10,8,3,12,6,,0.00,0,,285
2012-11-21,69,54,39,43,38,36,87,59,31,30.17,30.06,29.91,10,9,5,24,12,31,0.00,0,,188
2012-11-22,64,50,33,46,37,28,81,61,34,30.19,29.92,29.78,10,10,10,26,16,37,0.00,0,,244
2012-11-23,37,26,15,28,13,9,81,59,44,30.42,30.35,30.18,10,10,10,25,15,37,0.00,2,,306
2012-11-24,37,26,15,21,14,9,79,59,36,30.37,30.12,29.86,10,10,10,17,7,23,0.00,0,,178
2012-11-25,41,34,28,25,24,21,80,61,49,30.12,29.97,29.85,10,10,10,13,8,20,0.00,2,,354
2012-11-26,33,22,12,23,14,5,79,60,43,30.43,30.31,30.13,10,10,7,17,12,21,0.00,4,Snow,8
2012-11-27,35,22,8,16,10,3,79,60,35,30.42,30.31,30.19,10,10,10,16,5,20,0.00,0,,219
2012-11-28,46,32,19,27,20,14,86,61,29,30.38,30.28,30.14,10,10,7,14,4,,0.00,0,,158
2012-11-29,53,40,28,34,30,25,87,71,47,30.13,30.02,29.96,10,9,5,13,7,,0.00,0,,176
2012-11-30,51,40,30,36,31,27,93,77,54,30.07,30.02,29.96,10,7,3,10,2,,0.00,0,,267